Regional Weather Roundup
Issued by NWS State College, PA

Home | Current Version | Previous Version | Graphics & Text | Print | Product List | Glossary On
Versions: 1 2 3 4 5 6 7 8 9 10 11 12 13 14 15 16 17 18 19 20 21 22 23 24 25 26 27 28 29 30 31 32 33 34 35 36 37 38 39 40 41 42 43 44 45 46 47 48 49 50
000
ASUS41 KCTP 270710
RWRCTP

REGIONAL WEATHER ROUNDUP
NATIONAL WEATHER SERVICE STATE COLLEGE PA
300 AM EDT MON APR 27 2015

Note: "fair" indicates few or no clouds below 12,000 feet with no
significant weather and/or obstructions to visibility.

* = STATION THAT DOES NOT REPORT PRECIPITATION /E.G. RAIN...SNOW...ETC/
    THUNDER OR FOG.

PAZ002>004-007>009-013>016-020>023-029>032-270800-
WESTERN PENNSYLVANIA

CITY           SKY/WX    TMP DP  RH WIND       PRES   REMARKS
ERIE           CLOUDY    42  34  73 W6        29.83F
MEADVILLE      CLOUDY    38  32  79 NW6       29.81F
FRANKLIN*      MOCLDY    37  28  70 NW5       29.82S
NEW CASTLE     FAIR      38  32  79 CALM      29.85S
BEAVER COUNTY  NOT AVBL
BUTLER*        CLEAR     39  28  65 NW5       29.83S
PITTSBURGH INT CLEAR     41  31  67 NW12      29.82S
PITTSBURGH     CLEAR     42  28  57 NW9       29.80S
INDIANA*       CLOUDY    41  34  75 CALM      29.81F
LATROBE        CLOUDY    39  32  75 CALM      29.82S
WASHINGTON CO* CLEAR     39  28  65 W3        29.84S
$$

PAZ004>006-010>012-017>019-024>028-033>037-041-042-045-046-049>053-270800-
CENTRAL PENNSYLVANIA

CITY           SKY/WX    TMP DP  RH WIND       PRES   REMARKS
BRADFORD       CLOUDY    39  30  70 NW7       29.75F
DUBOIS         CLOUDY    43  31  62 NW6       29.75F
CLEARFIELD     CLOUDY    43  30  60 NW6       29.76F
JOHNSTOWN      CLOUDY    39  29  67 W7        29.75F
ALTOONA        MOCLDY    40  29  64 NW3       29.76F
STATE COLLEGE  CLOUDY    45  31  57 NW3       29.74F
WILLIAMSPORT   CLOUDY    47  32  56 W5        29.74F
SELINSGROVE    CLOUDY    42  34  73 CALM      29.75F
FT INDIANTOWN  CLOUDY    47  31  53 VRB3      29.73F
CAPITAL CITY   CLOUDY    41  31  67 SW6       29.75F
HARRISBURG     MOCLDY    41  33  73 CALM      29.74F
YORK           CLEAR     33  30  88 CALM      29.74F
$$

PAZ038>040-043-044-047-048-054-055-060>062-067>071-270800-
EASTERN PENNSYLVANIA

CITY           SKY/WX    TMP DP  RH WIND       PRES   REMARKS
SCRANTON       CLOUDY    44  30  57 N3        29.71F
MOUNT POCONO   CLOUDY    40  29  64 NW10      29.68S
ALLENTOWN      CLOUDY    41  29  62 W6        29.72F
QUAKERTOWN*    SUNNY     41  28  60 NW3       29.72F
READING        MOCLDY    43  30  60 CALM      29.73F
LANCASTER      CLEAR     41  30  65 W5        29.73F
COATESVILLE    SUNNY     41  28  60 NW6       29.73F
POTTSTOWN      MOCLDY    39  30  70 CALM      29.74F
BLUE BELL      CLEAR     41  32  70 CALM      29.72S
DOYLESTOWN     CLEAR     41  32  70 NW5       29.70F
WILLOW GROVE   NOT AVBL
NORTH PHILA    CLEAR     47  27  45 NW6       29.73F
PHILADELPHIA   PTCLDY    48  29  47 NW6       29.74S
$$


USA.gov is the U.S. government's official web portal to all federal, state and local government web resources and services.